Regional Weather Roundup
Issued by NWS Austin/San Antonio, TX

Home | Current Version | Previous Version | Text Only | Print | Product List | Glossary On
Versions: 1 2 3 4 5 6 7 8 9 10 11 12 13 14 15 16 17 18 19 20 21 22 23 24 25 26 27 28 29 30 31 32 33 34 35 36 37 38 39 40 41 42 43 44 45 46 47 48 49 50
000
ASUS44 KEWX 202102
RWREWX
SOUTH TEXAS REGIONAL WEATHER ROUNDUP
NATIONAL WEATHER SERVICE AUSTIN/SAN ANTONIO TX
400 PM CDT TUE AUG 20 2019

NOTE: "FAIR" INDICATED FEW OR NO CLOUDS BELOW 12,000 FEET WITH NO
SIGNIFICANT WEATHER AND/OR OBSTRUCTIONS TO VISIBILITY.

* - THESE STATIONS ARE NOT NWS OR FAA STATIONS...AND ARE NOT SUBJECT
    TO NWS AND FAA QUALITY CONTROL.

TXZ171-172-183>190-202200-
TEXAS HILL COUNTRY AND EDWARDS PLATEAU

CITY           SKY/WX    TMP DP  RH WIND       PRES   REMARKS
JUNCTION       MOSUNNY   97  63  32 SE8       30.01F HX  98
*LLANO         SUNNY    100  64  30 E10G16    30.01F HX 103
BURNET         MOSUNNY   99  62  29 E9        30.02F HX 100
*HORSESHOE BAY MOSUNNY   97  63  32 S6        30.01F HX  98
*KERRVILLE     PTSUNNY   97  61  30 S9        30.03F HX  97
*FREDERICKSBRG PTSUNNY   94  58  30 SE8       30.04F HX  93
*ROCKSPRINGS   MOSUNNY   91  63  38 SE15      30.11F HX  92
*BOERNE        PTSUNNY   91  63  38 SE7       30.04F HX  92
*CASTROVILLE   SUNNY     99  57  24 SE8       30.00F HX  98
HONDO          MOSUNNY   97  62  31 E10       29.98F HX  98
*UVALDE        SUNNY     97  62  31 E10       29.98F HX  98
DEL RIO        MOSUNNY  101  65  30 SE15G22   29.93F HX 104
LAUGHLIN AFB   SUNNY     98  64  32 SE15      29.94F HAZE    HX 100
SPOFFORD       NOT AVBL
*EAGLE PASS    MOSUNNY  102  61  25 SE8G20    29.94F HX 103
CARRIZO SPRGS  MOSUNNY  100  61  27 SE13      29.92F HX 101
$$

TXZ173-191>194-202-209-217>225-228-202200-
CENTRAL AND SOUTH CENTRAL TEXAS

CITY           SKY/WX    TMP DP  RH WIND       PRES   REMARKS
GEORGETOWN     PTSUNNY   97  68  38 SE8       30.01F HX 102
AUSTIN/BERGSTM MOSUNNY   98  67  36 SE5       29.97F HX 102
AUSTIN/MABRY   MOSUNNY  102  61  25 VRB3      29.99F HX 103
*AUSTIN/EXEC   MOSUNNY   97  64  34 SE7       29.99F HX  99
*LAGO VISTA    SUNNY     96  66  38 S7        30.02F HX  99
SAN MARCOS     SUNNY    100  68  35 SE8       29.98F HX 105
NEW BRAUNFELS  MOSUNNY   99  65  32 SE6       29.96F HX 102
RANDOLPH AFB   MOSUNNY   98  64  32 S10       29.98F HX 100
SEGUIN         NOT AVBL
KELLY FIELD    SUNNY     98  63  31 E10G17    29.96F HX 100
SAN ANTONIO    MOSUNNY   97  63  32 E10G22    29.99F HX  98
STINSON FIELD  SUNNY     99  63  30 VRB3      29.95F HX 101
PLEASANTON     MOSUNNY   99  61  28 E8        29.96F HX  99
*LA GRANGE     SUNNY     95  73  48 SE12G20   29.96F HX 104
*GIDDINGS      SUNNY    100  67  34 SE7       29.99F HX 104
*GONZALES      MOSUNNY  100  69  37 SE7       29.97F HX 106
$$

TXZ163>164-176>182-195>201-210>213-226-227-235-202200-
SOUTHEAST TEXAS

CITY           SKY/WX    TMP DP  RH WIND       PRES   REMARKS
COLLEGE STN    PTSUNNY   98  69  38 VRB6G17   29.97F HX 104
*BRYAN         MOSUNNY  100  71  39 SW7       29.99F HX 107
*CALDWELL      PTSUNNY   96  67  38 E7        29.99F HX 101
*CROCKETT      MOSUNNY   95  70  43 CALM      30.01F HX 101
*BRENHAM       LGT RAIN  91  73  55 S14G22    30.02R HX  98
HUNTSVILLE     HVY RAIN  80  76  87 S18G25    30.01R VSB 3/4
CONROE         MOSUNNY   91  74  57 S14       30.01F HX 100
HOUSTON BUSH   PTSUNNY   88  73  61 SW8       30.02F HX  95
HOUSTON HOBBY  PTSUNNY   89  72  56 S7        30.01F HX  96
*HOUSTON SW AP FAIR      84  76  76 CALM      30.04F HX  92
PEARLAND       FAIR      87  73  62 S6        30.04F HX  94
HOUSTON HOOKS  FAIR      83  73  72 W8        30.02F
ELLINGTON FLD  PTSUNNY   86  75  70 S7        30.02  HX  95
SUGAR LAND     FAIR      85  75  72 SE6       30.02F THUNDER HX  93
*HOUSTON EXEC  CLOUDY    81  77  89 SE6       30.03F
*CLEVELAND MUN FAIR      89  77  68 S10G18    30.02S HX 100
*WHARTON       CLOUDY    87  69  55 E5        30.02F HX  91
*COLUMBUS      PTSUNNY   82  70  65 S7        30.03F
*EAGLE LAKE    CLOUDY    85  75  71 S7        30.02  HX  94
$$

TXZ214>216-236>238-202200-
THE UPPER TEXAS COAST

CITY           SKY/WX    TMP DP  RH WIND       PRES   REMARKS
*ORANGE        CLOUDY    84  80  90 CALM      30.05F HX  97
PORT ARTHUR    PTSUNNY   87  77  72 SW7       30.02F HX  99
GALVESTON      CLOUDY    82  75  79 S15       30.05F
ANGLETON       CLOUDY    88  75  65 VRB3      30.03S HX  97
*BAY CITY      SUNNY     87  78  73 E6        30.03S HX  99
PALACIOS       SUNNY     92  74  55 S10       30.00F HX 101
$$

TXZ229>234-239>247-202200-
TEXAS COASTAL BEND AND RIO GRANDE PLAINS

CITY           SKY/WX    TMP DP  RH WIND       PRES   REMARKS
VICTORIA       MOSUNNY   96  67  38 S9        29.97F HX 100
*BEEVILLE      NOT AVBL
ROCKPORT       SUNNY     91  75  59 SE13      29.98F HX 101
*PORT ARANSAS  SUNNY     89  78  69 SE10      30.00F HX 102
*PORT LAVACA   MOSUNNY   97  70  41 SE12      29.99F HX 104
*INGLESIDE     NOT AVBL
CORPUS CHRISTI PTSUNNY   95  72  47 SE15G24   29.96F HX 103
CORPUS NAS     PTSUNNY   92  79  65 SE16G24   29.98F HX 108
*ROBSTOWN      SUNNY     96  69  41 SE10G21   29.97F HX 102
ALICE          MOSUNNY  101  68  34 SE16G24   29.93F HX 106
KINGSVILLE NAS NOT AVBL
COTULLA        MOSUNNY  103  54  19 S9G21     29.93F HX 101
LAREDO         SUNNY    103  58  22 E10       29.91F HX 102
$$

TXZ248>255-202200-
DEEP SOUTH TEXAS

CITY           SKY/WX    TMP DP  RH WIND       PRES   REMARKS
BROWNSVILLE    FAIR      95  74  50 SE15      29.96F HX 105
PORT ISABEL    FAIR      92  74  55 SE18      29.96F HX 101
HARLINGEN      MOSUNNY   96  72  45 E17G25    29.93F HX 104
*HEBBRONVILLE  MOSUNNY  100  54  22 SE7G16    29.96F HX  97
MCALLEN        CLOUDY    97  67  37 E15       29.92F HX 101
*WESLACO       PTSUNNY   98  68  37 SE14G21   29.93  HX 103
FALFURRIAS     SUNNY    101  68  34 SE15G23   29.93F HX 107
EDINBURG       FAIR     101  62  27 SE12      29.94S HX 103
*ZAPATA        FAIR     102  56  21 E10G22    29.92F HX 101
$$

TXZ213>215-236>238-242>244-246-247-251-254-255-202200-
CMAN STATIONS

STATION/POSITION TIME  TEMP    WIND        PRES    WAVE
                       AIR SEA DIR/SP/G            HT/PER
                 (UTC) (F)     (DEG/KT/KT) (MB)    (FT/S)
SABINE PASS      2030          240/  5/  7   N/A
NORTH JETTY/GLS  2018   84 88  180/  9/ 10 1016.3
EAGLE POINT      2030          130/  8/ 10   N/A
MORGANS POINT    2030          180/  6/  8   N/A
PORT O`CONNOR    2030          150/ 10/ 11   N/A
PORT ARANSAS     2000   85 87  120/  8/  8 1016.4
MALAQUITE BEACH  2030           90/  9/ 10   N/A
BAFFIN BAY       2030           90/ 14/ 18   N/A
PORT ISABEL      2030          110/ 14/ 18   N/A
$$



USA.gov is the U.S. government's official web portal to all federal, state and local government web resources and services.